Weather History for KP28 - January, 2013

Change the Weather History Date:

Friday, January 11, 2013

  Actual Average Record
Temperature  
Mean Temperature 48 °F 33 °F  
Max Temperature 59 °F 45 °F 71 °F (1911)
Min Temperature 37 °F 21 °F -12 °F (1918)
Degree Days  
Heating Degree Days 17 32  
Month to date heating degree days 325 352  
Since 1 July heating degree days 1907 2151  
Cooling Degree Days 0 0  
Month to date cooling degree days 0 0  
Year to date cooling degree days 0 0  
Moisture  
Dew Point 38 °F    
Average Humidity 64    
Maximum Humidity 100    
Minimum Humidity 28    
Precipitation  
Precipitation 0.00 in 0.02 in 1.37 in (1949)
Month to date precipitation 0.56 0.19  
Year to date precipitation 0.56 0.19  
Snow  
Snow 0.00 in 0.00 in - ()
Month to date snowfall T 0.6  
Since 1 July snowfall 1.0 3.5  
Snow Depth -    
Sea Level Pressure  
Sea Level Pressure 29.64 in    
Wind  
Wind Speed 12 mph (South)    
Max Wind Speed 25 mph    
Max Gust Speed 33 mph    
T = Trace of Precipitation, MM = Missing Value Source: NWS Daily Summary

Daily Weather History Graph

Daily Weather History Graph

Search for Another Location

Airport or City:

Trip Planner

Search our weather history database for the weather conditions in past years. The results will help you decide how hot, cold, wet, or windy it might be!

Date:

Astronomy

Jan. 11, 2013 Rise Set
Actual Time 7:48 AM CST 5:36 PM CST
Civil Twilight 7:19 AM CST 6:05 PM CST
Nautical Twilight 6:47 AM CST 6:37 PM CST
Astronomical Twilight 6:15 AM CST 7:09 PM CST
Moon 7:23 AM CST (1/11) 5:55 PM CST (1/11)
Length of Visible Light 10h 45m
Length of Day
9h 48m
Waning Crescent, 0% of the Moon is Illuminated
Jan 11
Waning Crescent
Jan 11
New
Jan 18
First Quarter
Jan 26
Full
Feb 3
Last Quarter

Hourly Weather History & Observations

Time (CST) Temp. Windchill Dew Point Humidity Pressure Visibility Wind Dir Wind Speed Gust Speed Precip Events Conditions
12:56 AM 43.0 °F 36.8 °F 43.0 °F 100% 29.73 in - South 11.5 mph - N/A   Unknown
1:56 AM 44.1 °F 39.5 °F 44.1 °F 100% 29.70 in - SSE 8.1 mph - N/A   Unknown
2:56 AM 44.1 °F 38.1 °F 43.0 °F 96% 29.67 in - South 11.5 mph - N/A   Unknown
3:56 AM 42.1 °F 36.1 °F 42.1 °F 100% 29.64 in - South 10.4 mph - N/A   Unknown
4:56 AM 42.1 °F 37.1 °F 41.0 °F 96% 29.60 in - SSE 8.1 mph - N/A   Unknown
5:56 AM 42.1 °F 38.4 °F 41.0 °F 96% 29.60 in - SSE 5.8 mph - N/A   Unknown
6:56 AM 43.0 °F 38.2 °F 41.0 °F 93% 29.61 in - South 8.1 mph - N/A   Unknown
7:56 AM 43.0 °F 39.5 °F 41.0 °F 93% 29.64 in - SSE 5.8 mph - N/A   Unknown
8:56 AM 45.0 °F 40.6 °F 41.0 °F 86% 29.63 in - SSE 8.1 mph - N/A   Unknown
9:56 AM 46.0 °F 39.6 °F 42.1 °F 86% 29.62 in - South 15.0 mph - N/A   Unknown
10:56 AM 48.0 °F - 42.1 °F 80% 29.63 in - South 15.0 mph - N/A   Unknown
11:56 AM 48.9 °F - 42.1 °F 77% 29.59 in - South 8.1 mph - N/A   Unknown
12:56 PM 51.1 °F - 42.1 °F 71% 29.55 in - South 13.8 mph 23.0 mph N/A   Unknown
1:56 PM 53.1 °F - 45.0 °F 74% 29.52 in - South 10.4 mph - N/A   Unknown
2:56 PM 55.9 °F - 44.1 °F 64% 29.52 in - South 13.8 mph - N/A   Unknown
3:56 PM 55.9 °F - 44.1 °F 64% 29.52 in - South 19.6 mph 29.9 mph N/A   Unknown
4:56 PM 55.0 °F - 45.0 °F 69% 29.54 in - South 8.1 mph - N/A   Unknown
5:56 PM 57.9 °F - 39.9 °F 51% 29.59 in - SW 15.0 mph 20.7 mph N/A   Unknown
6:56 PM 57.9 °F - 30.9 °F 36% 29.65 in - West 16.1 mph 28.8 mph N/A   Unknown
7:56 PM 55.0 °F - 24.1 °F 30% 29.69 in - West 18.4 mph 26.5 mph N/A   Unknown
8:56 PM 52.0 °F - 19.0 °F 27% 29.73 in - WNW 16.1 mph 25.3 mph N/A   Unknown
9:56 PM 46.9 °F - 18.0 °F 32% 29.78 in - NW 24.2 mph 31.1 mph N/A   Unknown
10:56 PM 39.0 °F 34.8 °F 30.9 °F 73% 29.84 in - NNW 5.8 mph - N/A   Unknown
11:56 PM 37.9 °F 30.0 °F 30.0 °F 73% 29.86 in - NNW 12.7 mph - N/A   Unknown